Location: George Washington National Forest Helicopter Landing Site
(38.6463°N, 79.0851°W)
Time: 16:50:20
(UTC-04:00)

Tiros 1 despin weight - Pass Details

Date: 23 August 2019
Orbit: 595 x 642 km, 48.2° (Epoch: 15 September)

Event Time Altitude Azimuth Distance (km) Brightness Sun altitude
Rises 22:17:14 0° 191° (S) 2,810 - -24.6°
Reaches altitude 10° 22:20:15 10° 169° (S) 1,915 - -25.0°
Maximum altitude 22:22:56 16° 131° (SE) 1,571 - -25.4°
Drops below altitude 10° 22:25:37 10° 94° (E) 1,931 - -25.8°
Sets 22:28:40 0° 72° (ENE) 2,846 - -26.3°
